Stündliche Wetter Celbowo

Heute, 25 Januar, Montag

Zeit Temperatur Niederschläge Wind Luftdruck Luftfeuchtigkeit
00:00 -1°C° 0.4 mm 5 m/S 742 mmHg 97%
01:00 -1°C° 0 mm 5 m/S 742 mmHg 98%
02:00 -1°C° 0.3 mm 5 m/S 742 mmHg 98%
03:00 -1°C° 0.3 mm 5 m/S 742 mmHg 97%
04:00 -2°C° 0.3 mm 6 m/S 743 mmHg 97%
05:00 -1°C° 0.1 mm 5 m/S 743 mmHg 96%
06:00 -1°C° 0.1 mm 5 m/S 743 mmHg 95%
07:00 -1°C° 0.1 mm 5 m/S 743 mmHg 93%
08:00 -1°C° 0.1 mm 5 m/S 744 mmHg 94%
09:00 -1°C° 0.1 mm 4 m/S 745 mmHg 95%
10:00 -1°C° 0.1 mm 4 m/S 746 mmHg 96%
11:00 -1°C° 0.1 mm 4 m/S 746 mmHg 94%
12:00 -1°C° 0.1 mm 4 m/S 746 mmHg 92%
13:00 0°C° 0.1 mm 4 m/S 746 mmHg 90%
14:00 -1°C° 0 mm 4 m/S 746 mmHg 90%
15:00 -1°C° 0 mm 4 m/S 747 mmHg 91%
16:00 -1°C° 0 mm 4 m/S 747 mmHg 92%
17:00 -1°C° 0 mm 4 m/S 747 mmHg 92%
18:00 -2°C° 0 mm 4 m/S 748 mmHg 93%
19:00 -2°C° 0 mm 4 m/S 748 mmHg 93%
20:00 -2°C° 0 mm 4 m/S 748 mmHg 93%
21:00 -1°C° 0 mm 4 m/S 748 mmHg 93%
22:00 -1°C° 0 mm 4 m/S 748 mmHg 92%
23:00 -1°C° 0.1 mm 5 m/S 748 mmHg 92%

Morgen, 26 Januar, Dienstag

Zeit Temperatur Niederschläge Wind Luftdruck Luftfeuchtigkeit
00:00 -1°C° 0.1 mm 5 m/S 748 mmHg 91%
01:00 -1°C° 0.1 mm 5 m/S 748 mmHg 91%
02:00 -1°C° 0.1 mm 5 m/S 748 mmHg 91%
03:00 -1°C° 0.1 mm 5 m/S 748 mmHg 90%
04:00 -1°C° 0.1 mm 5 m/S 748 mmHg 90%
05:00 -1°C° 0.1 mm 5 m/S 749 mmHg 90%
06:00 -1°C° 0.1 mm 5 m/S 749 mmHg 90%
07:00 -1°C° 0.1 mm 5 m/S 749 mmHg 89%
08:00 -2°C° 0.1 mm 6 m/S 749 mmHg 89%
09:00 -2°C° 0.1 mm 6 m/S 749 mmHg 88%
10:00 -2°C° 0.1 mm 6 m/S 749 mmHg 88%
11:00 -2°C° 0 mm 7 m/S 749 mmHg 85%
12:00 -2°C° 0 mm 7 m/S 750 mmHg 81%
13:00 -1°C° 0 mm 7 m/S 750 mmHg 78%
14:00 -2°C° 0 mm 7 m/S 750 mmHg 79%
15:00 -2°C° 0 mm 7 m/S 750 mmHg 80%
16:00 -2°C° 0 mm 8 m/S 750 mmHg 81%
17:00 -2°C° 0 mm 8 m/S 750 mmHg 83%
18:00 -2°C° 0 mm 8 m/S 750 mmHg 84%
19:00 -2°C° 0 mm 8 m/S 750 mmHg 86%
20:00 -2°C° 0.1 mm 8 m/S 750 mmHg 83%
21:00 -2°C° 0.1 mm 8 m/S 751 mmHg 81%
22:00 -2°C° 0.1 mm 8 m/S 751 mmHg 78%
23:00 -2°C° 0 mm 8 m/S 751 mmHg 78%

übermorgen, 27 Januar, Mittwoch

Zeit Temperatur Niederschläge Wind Luftdruck Luftfeuchtigkeit
00:00 -2°C° 0 mm 8 m/S 751 mmHg 79%
01:00 -2°C° 0 mm 8 m/S 752 mmHg 80%
02:00 -2°C° 0 mm 8 m/S 752 mmHg 80%
03:00 -2°C° 0 mm 8 m/S 752 mmHg 79%
04:00 -2°C° 0 mm 8 m/S 752 mmHg 79%
05:00 -2°C° 0 mm 7 m/S 752 mmHg 81%
06:00 -2°C° 0 mm 7 m/S 752 mmHg 83%
07:00 -2°C° 0 mm 7 m/S 752 mmHg 85%
08:00 -2°C° 0.1 mm 6 m/S 752 mmHg 88%
09:00 -1°C° 0.1 mm 6 m/S 753 mmHg 91%
10:00 0°C° 0.1 mm 5 m/S 753 mmHg 94%
11:00 -1°C° 0.1 mm 6 m/S 753 mmHg 88%
12:00 -1°C° 0.1 mm 6 m/S 753 mmHg 82%
13:00 +1°C° 0.1 mm 6 m/S 753 mmHg 76%
14:00 -1°C° 0.1 mm 7 m/S 753 mmHg 77%
15:00 -1°C° 0.1 mm 7 m/S 752 mmHg 78%
16:00 -2°C° 0.1 mm 7 m/S 752 mmHg 79%
17:00 -2°C° 0 mm 7 m/S 753 mmHg 79%
18:00 -2°C° 0 mm 7 m/S 753 mmHg 79%
19:00 -2°C° 0 mm 7 m/S 753 mmHg 79%
20:00 -3°C° 0 mm 6 m/S 753 mmHg 80%
21:00 -2°C° 0 mm 5 m/S 752 mmHg 81%
22:00 -2°C° 0 mm 4 m/S 752 mmHg 82%
23:00 -2°C° 0 mm 4 m/S 752 mmHg 84%

28 Januar, Donnerstag

Zeit Temperatur Niederschläge Wind Luftdruck Luftfeuchtigkeit
00:00 -2°C° 0 mm 4 m/S 752 mmHg 86%
01:00 -3°C° 0 mm 4 m/S 752 mmHg 88%
02:00 -3°C° 0 mm 4 m/S 752 mmHg 88%
03:00 -3°C° 0 mm 4 m/S 751 mmHg 87%
04:00 -3°C° 0 mm 4 m/S 751 mmHg 87%
05:00 -3°C° 0 mm 4 m/S 751 mmHg 85%
06:00 -3°C° 0 mm 4 m/S 751 mmHg 83%
07:00 -3°C° 0 mm 4 m/S 751 mmHg 82%
08:00 -3°C° 0 mm 4 m/S 751 mmHg 78%
09:00 -3°C° 0 mm 4 m/S 751 mmHg 75%
10:00 -2°C° 0 mm 4 m/S 751 mmHg 71%
11:00 -2°C° 0 mm 4 m/S 751 mmHg 70%
12:00 -2°C° 0 mm 4 m/S 750 mmHg 68%
13:00 -1°C° 0 mm 4 m/S 750 mmHg 66%
14:00 -2°C° 0 mm 4 m/S 750 mmHg 70%
15:00 -2°C° 0 mm 4 m/S 750 mmHg 73%
16:00 -2°C° 0 mm 3 m/S 750 mmHg 76%
17:00 -2°C° 0 mm 3 m/S 750 mmHg 78%
18:00 -2°C° 0 mm 3 m/S 750 mmHg 80%
19:00 -4°C° 0 mm 3 m/S 750 mmHg 81%
20:00 -2°C° 0 mm 3 m/S 750 mmHg 82%
21:00 -2°C° 0 mm 3 m/S 750 mmHg 82%
22:00 -2°C° 0 mm 3 m/S 750 mmHg 83%
23:00 -2°C° 0 mm 3 m/S 749 mmHg 82%

29 Januar, Freitag

Zeit Temperatur Niederschläge Wind Luftdruck Luftfeuchtigkeit
00:00 -3°C° 0 mm 4 m/S 749 mmHg 81%
01:00 -3°C° 0 mm 4 m/S 748 mmHg 80%
02:00 -4°C° 0 mm 5 m/S 747 mmHg 81%
03:00 -4°C° 0 mm 6 m/S 746 mmHg 82%
04:00 -3°C° 0 mm 7 m/S 745 mmHg 83%
05:00 -3°C° 0.4 mm 7 m/S 744 mmHg 87%
06:00 -4°C° 0.4 mm 8 m/S 743 mmHg 91%
07:00 -4°C° 0.4 mm 9 m/S 742 mmHg 95%
08:00 -2°C° 0.6 mm 8 m/S 741 mmHg 95%
09:00 -1°C° 0.6 mm 8 m/S 740 mmHg 95%
10:00 0°C° 0.6 mm 8 m/S 739 mmHg 95%
11:00 0°C° 0.7 mm 8 m/S 737 mmHg 95%
12:00 +1°C° 0.7 mm 8 m/S 736 mmHg 95%
13:00 +1°C° 0.7 mm 8 m/S 735 mmHg 95%
14:00 +2°C° 1 mm 7 m/S 734 mmHg 96%
15:00 +2°C° 1 mm 6 m/S 733 mmHg 96%
16:00 +2°C° 1 mm 6 m/S 732 mmHg 97%
17:00 +2°C° 0.7 mm 7 m/S 732 mmHg 95%
18:00 +3°C° 0.7 mm 7 m/S 732 mmHg 94%
19:00 +2°C° 0.7 mm 8 m/S 731 mmHg 92%
20:00 +1°C° 0.4 mm 8 m/S 731 mmHg 93%
21:00 +1°C° 0.4 mm 9 m/S 732 mmHg 93%
22:00 +1°C° 0.4 mm 9 m/S 732 mmHg 93%
23:00 0°C° 0.1 mm 9 m/S 733 mmHg 93%

30 Januar, Samstag

Zeit Temperatur Niederschläge Wind Luftdruck Luftfeuchtigkeit
00:00 -2°C° 0.1 mm 10 m/S 734 mmHg 92%
01:00 -3°C° 0.1 mm 10 m/S 735 mmHg 91%
02:00 -3°C° 0.3 mm 10 m/S 736 mmHg 90%
03:00 -4°C° 0.3 mm 11 m/S 737 mmHg 88%
04:00 -5°C° 0.3 mm 12 m/S 739 mmHg 86%
05:00 -4°C° 0.1 mm 11 m/S 740 mmHg 87%
06:00 -5°C° 0.1 mm 10 m/S 741 mmHg 87%
07:00 -7°C° 0.1 mm 10 m/S 742 mmHg 88%
08:00 -7°C° 0.1 mm 10 m/S 742 mmHg 84%
09:00 -6°C° 0.1 mm 9 m/S 743 mmHg 80%
10:00 -6°C° 0.1 mm 9 m/S 744 mmHg 76%
11:00 -6°C° 0 mm 9 m/S 744 mmHg 74%
12:00 -6°C° 0 mm 9 m/S 744 mmHg 73%
13:00 -6°C° 0 mm 9 m/S 745 mmHg 71%
14:00 -6°C° 0 mm 9 m/S 745 mmHg 71%
15:00 -6°C° 0 mm 9 m/S 745 mmHg 70%
16:00 -6°C° 0 mm 9 m/S 745 mmHg 69%
17:00 -6°C° 0 mm 9 m/S 746 mmHg 70%
18:00 -6°C° 0 mm 8 m/S 746 mmHg 71%
19:00 -6°C° 0 mm 8 m/S 746 mmHg 71%
20:00 -6°C° 0 mm 8 m/S 747 mmHg 71%
21:00 -5°C° 0 mm 8 m/S 747 mmHg 71%
22:00 -5°C° 0 mm 8 m/S 747 mmHg 71%
23:00 -5°C° 0 mm 9 m/S 747 mmHg 72%
Mehr zeigen

Wir brauchen deine Erlaubnis

Meteoprog und unser Service Anbieter werden persönliche Daten aufbewahren, so wie Cookies, Geräte Bezeichnung oder ähnliche Technologien von deinem Gerät und Prozess, so wie Persönliche Daten Inhalte und Werbungen, genauso wie social Media und den Verkehr zu analysieren.

  • Aufbewahrung und/oder Zugang zu deiner Geräte Informationen.

    Cookies, Geräte Bezeichnung oder andere Informationen, können aufbewahrt oder Zugang zu deinem Gerät erhalten, für den Grund, der oben angegeben wird.

  • Personalisierte Werbung und Inhalte, Messungen, Einblick in das Publikum und Produkt Entwicklung.

    Werbungen und Inhalte können personalisiert werden, basierend auf ein Profil. Mehr Daten können besser personalisierte Werbungen und Inhalte hinzufügen. Werbung und Inhalte können gezeigt und gemessen werden. Einblicke über das Publikum, welche die Werbung gesehen haben und den Inhalt, können abgeleitet werden. So wie Daten können genutzt werden, um es zu verbessern oder die Benutzer Erfahrung zu verbessern das System und die Software.

Wenn du “Ich stimme zu” klickst, erlaubst du uns, die Cookies zu benutzen die Geräte Bezeichnung, den Web oder ähnliche Technologien zu benutzen. Deine Settings, können in deinem Gerät bei deinem Browser geändert werden.

Für den bestimmten Zweck, berechtigten Interessen beruhen darauf, mehr als auf den Inhalt. Du kannst mehr darüber in unseren Privaten und Cookie Politik lesen.